Lid_Strength_Index
-0 1 0 1 1 1 1 0 -1 -1 -1 -0 -1 -0 -1 0 0 -1 -0 0 0 0
0 0 1 0 -0 1 -0 0 -0 -0 -0 -0 -0 -0 -0 -0 0 0 0 0 -0 1
0 0 -0 -0 0 0 -0 -1 -0 -0 -0 -0 -0 -0 0 0 0 0 1 0 0 0
1 0 -0 0 0 0 -0 -0 0 -0 0 0 0 -0 -0 1 1 1 1 1 1 1
0 0 0 0 0 -0 0 -0 -0 -0 -0 0 0 0 1 1 1 1 1 1 1 2
0 0 0 0 0 -0 -0 -0 -0 -0 0 1 0 1 0 1 1 1 1 1 1 1
1 1 1 0 0 -0 -0 -0 -0 -0 1 0 0 0 0 1 1 1 1 1 1 1
1 0 0 1 0 -0 -0 -0 -0 0 0 0 0 0 1 1 1 1 1 1 1 1
1 1 0 0 0 0 0 0 0 1 1 0 1 6 5 3 1 1 1 2 1 0
1 1 1 1 1 1 1 0 1 1 0 1 0 6 7 6 1 1 1 1 1 1
1 1 1 1 1 0 0 0 1 0 0 1 1 7 8 8 0 1 1 0 0 1
1 1 1 2 1 0 1 0 0 0 1 1 1 8 8 5 1 1 1 1 0 0
1 1 1 1 1 0 0 1 1 1 0 3 1 9 9 5 1 1 1 0 1 7
0 1 0 0 0 0 0 1 1 1 1 0 1 2 9 8 1 1 1 1 1 0